K2RMB Weather Reports


time (UTC)temp
F
wind
direction
speed
knots
gust
knots
rain 1hr
in
rain 24hr
in
rain mn
in
humidity
%
barometer
mb
20260507001335 46 96 1.7 1.7 0.00 0.61 0.61 94 1009.3
20260507000831 46 96 2.6 2.6 0.00 0.61 0.61 94 1009.3
20260507000328 46 96 2.6 2.6 0.00 0.61 0.61 94 1009.3
20260506235824 46 96 0.0 0.0 0.01 0.61 0.61 94 1009.0
20260506235320 46 96 1.7 1.7 0.01 0.61 0.61 94 1009.0
20260506234816 46 96 4.3 5.2 0.01 0.61 0.61 94 1009.0
20260506234314 46 96 1.7 1.7 0.01 0.61 0.61 94 1009.0
20260506233812 46 96 0.0 0.0 0.01 0.61 0.61 94 1008.6
20260506233307 47 96 0.0 0.0 0.00 0.59 0.59 94 1008.3
20260506232804 48 96 1.7 1.7 0.00 0.59 0.59 94 1008.3
20260506232300 49 96 0.0 0.0 0.00 0.59 0.59 94 1008.0
20260506231757 49 96 0.0 0.0 0.00 0.59 0.59 94 1007.6
20260506231255 49 96 0.0 0.0 0.00 0.59 0.59 94 1007.6
20260506230752 49 96 0.0 0.0 0.00 0.59 0.59 94 1007.6
20260506230249 49 96 0.0 0.0 0.00 0.59 0.59 94 1008.0
20260506225745 49 96 0.0 0.0 0.12 0.59 0.59 94 1007.6
20260506225242 49 96 1.7 1.7 0.12 0.59 0.59 94 1007.6
20260506224738 50 96 1.7 1.7 0.12 0.59 0.59 94 1007.6
20260506224236 51 96 0.0 0.0 0.11 0.58 0.58 94 1007.3
20260506223732 51 96 0.0 0.0 0.11 0.58 0.58 94 1007.3
20260506223228 51 96 0.0 0.0 0.11 0.58 0.58 94 1006.5
20260506222725 52 96 0.0 0.0 0.11 0.58 0.58 94 1006.5
20260506222220 53 96 0.0 0.0 0.11 0.58 0.58 94 1006.5
20260506221719 53 96 1.7 1.7 0.09 0.56 0.56 94 1006.2
20260506221217 54 96 2.6 2.6 0.07 0.55 0.55 94 1006.2
20260506220714 55 102 2.6 2.6 0.04 0.51 0.51 94 1006.2
20260506220208 57 102 4.3 5.2 0.01 0.48 0.48 94 1005.8
20260506215705 59 48 1.7 1.7 0.00 0.45 0.45 94 1005.5
20260506215201 59 48 0.0 0.0 0.00 0.45 0.45 94 1005.5
20260506214658 59 48 0.0 0.0 0.00 0.45 0.45 94 1005.8
20260506214155 59 48 1.7 1.7 0.00 0.45 0.45 94 1005.5
20260506213653 59 48 0.0 0.0 0.00 0.45 0.45 94 1005.5
20260506213150 59 48 0.0 0.0 0.00 0.45 0.45 94 1005.5
20260506212648 59 48 1.7 1.7 0.00 0.45 0.45 94 1005.5
20260506212148 59 48 0.0 0.0 0.00 0.45 0.45 94 1005.5
20260506211644 59 48 0.9 0.9 0.00 0.45 0.45 94 1005.5
20260506211141 59 48 0.0 0.0 0.00 0.45 0.45 94 1005.5
20260506210638 59 48 0.0 0.0 0.00 0.45 0.45 94 1005.8
20260506210134 59 48 0.0 0.0 0.00 0.45 0.45 94 1005.8
20260506205632 59 48 0.0 0.0 0.03 0.45 0.45 94 1005.8
20260506205132 59 48 1.7 1.7 0.03 0.45 0.45 94 1005.8
20260506204630 59 48 0.0 0.0 0.03 0.45 0.45 94 1005.8
20260506204127 59 48 1.7 1.7 0.03 0.45 0.45 94 1005.8
20260506203625 59 48 2.6 2.6 0.03 0.45 0.45 94 1005.8
20260506203121 59 48 0.0 0.0 0.03 0.45 0.45 94 1005.8
20260506202619 59 48 1.7 1.7 0.03 0.45 0.45 94 1006.2
20260506202115 59 48 1.7 1.7 0.03 0.45 0.45 94 1006.2
20260506201613 59 48 0.0 0.0 0.01 0.44 0.44 94 1006.2
20260506201109 59 48 0.0 0.0 0.01 0.44 0.44 94 1006.2
20260506200606 59 48 1.7 1.7 0.00 0.42 0.42 94 1006.2
20260506195559 59 48 0.0 0.0 0.01 0.40 0.40 93 1006.2
20260506195055 59 48 0.9 0.9 0.01 0.40 0.40 93 1006.5
20260506194553 59 48 2.6 2.6 0.01 0.40 0.40 93 1006.5
20260506194049 59 48 5.2 5.2 0.01 0.40 0.40 93 1006.5
20260506193547 59 48 1.7 1.7 0.00 0.39 0.39 93 1006.5
20260506193044 59 48 1.7 1.7 0.00 0.39 0.39 93 1006.5
20260506192541 59 48 4.3 5.2 0.00 0.39 0.39 93 1006.5
20260506192037 59 48 0.0 0.0 0.00 0.39 0.39 93 1006.5
20260506191534 59 48 0.0 0.0 0.00 0.39 0.39 93 1006.5
20260506191030 59 48 0.0 0.0 0.00 0.39 0.39 93 1006.2
20260506190527 59 48 0.9 0.9 0.00 0.39 0.39 93 1006.5
20260506190024 59 48 0.0 0.0 0.00 0.39 0.39 93 1006.5
20260506185521 59 48 0.0 0.0 0.04 0.39 0.39 93 1007.0
20260506185017 59 48 1.7 1.7 0.04 0.39 0.39 93 1007.0
20260506184515 59 48 2.6 2.6 0.03 0.37 0.37 93 1006.5
20260506184012 59 48 0.0 0.0 0.03 0.37 0.37 93 1007.0
20260506183508 59 48 1.7 1.7 0.03 0.37 0.37 93 1007.0
20260506183005 59 48 0.0 0.0 0.01 0.36 0.36 93 1007.0
20260506182502 59 48 0.9 0.9 0.01 0.36 0.36 93 1007.0
20260506181959 59 48 0.0 0.0 0.01 0.36 0.36 93 1006.5
20260506181457 59 54 0.0 0.0 0.01 0.36 0.36 93 1006.5
20260506180953 59 54 0.0 0.0 0.01 0.36 0.36 93 1006.5
20260506180450 59 54 0.0 0.0 0.00 0.34 0.34 93 1006.5
20260506175947 59 54 4.3 4.3 0.12 0.34 0.34 93 1006.5
20260506175443 59 48 1.7 1.7 0.11 0.33 0.33 93 1007.0
20260506174940 59 24 0.0 0.0 0.11 0.33 0.33 93 1007.0
20260506174438 59 24 1.7 1.7 0.09 0.31 0.31 93 1007.3
20260506173934 59 24 0.0 0.0 0.09 0.31 0.31 93 1007.3
20260506173432 59 24 0.0 0.0 0.07 0.29 0.29 93 1007.3
20260506172929 59 24 0.0 0.0 0.07 0.29 0.29 93 1007.6
20260506172426 59 24 4.3 4.3 0.06 0.28 0.28 93 1007.3
20260506171923 59 18 0.0 0.0 0.03 0.25 0.25 93 1007.6
20260506171420 59 18 1.7 1.7 0.01 0.23 0.23 93 1007.6
20260506170918 59 18 1.7 1.7 0.01 0.23 0.23 93 1007.6
20260506170414 59 18 1.7 1.7 0.00 0.22 0.22 93 1008.0
20260506165913 59 48 3.5 3.5 0.12 0.22 0.22 93 1008.0
20260506165411 59 48 4.3 5.2 0.11 0.20 0.20 93 1008.0
20260506164907 59 48 0.0 0.0 0.09 0.18 0.18 93 1008.0
20260506164403 59 48 0.0 0.0 0.09 0.18 0.18 93 1008.0
20260506163901 59 48 2.6 2.6 0.07 0.17 0.17 93 1008.0
20260506163355 59 48 0.0 0.0 0.06 0.15 0.15 93 1008.0
20260506162850 59 48 0.0 0.0 0.04 0.14 0.14 92 1008.0
20260506162349 59 48 0.0 0.0 0.03 0.12 0.12 93 1008.0
20260506161846 59 48 1.7 1.7 0.03 0.12 0.12 92 1008.3
20260506161343 59 48 0.0 0.0 0.01 0.11 0.11 92 1008.3
20260506160841 59 48 0.9 0.9 0.01 0.11 0.11 92 1008.3
20260506160338 60 48 0.0 0.0 0.00 0.09 0.09 92 1008.3
20260506155836 60 48 0.0 0.0 0.04 0.07 0.07 91 1008.3
20260506155332 60 48 1.7 1.7 0.04 0.07 0.07 92 1008.0
20260506153444 60 54 1.7 1.7 0.03 0.06 0.06 92 1008.3
20260506152942 60 54 0.9 0.9 0.03 0.06 0.06 92 1008.3
20260506152439 60 54 1.7 1.7 0.01 0.04 0.04 91 1008.6
20260506151937 60 54 0.9 0.9 0.01 0.04 0.04 91 1008.6
20260506151434 60 54 0.0 0.0 0.01 0.04 0.04 91 1009.0
20260506150932 60 54 2.6 2.6 0.00 0.03 0.03 90 1009.0
20260506150427 60 54 0.0 0.0 0.00 0.03 0.03 90 1009.0
20260506145925 60 54 0.0 0.0 0.03 0.03 0.03 90 1009.0
20260506145421 60 54 0.0 0.0 0.01 0.01 0.01 89 1009.0
20260506144919 61 54 0.9 0.9 0.01 0.01 0.01 87 1009.0
20260506144415 61 54 0.0 0.0 0.00 0.00 0.00 85 1009.0
20260506143914 62 54 0.0 0.0 0.00 0.00 0.00 84 1009.0
20260506143410 62 42 0.0 0.0 0.00 0.00 0.00 82 1009.3
20260506142908 63 48 1.7 1.7 0.00 0.00 0.00 80 1009.3
20260506142406 63 48 0.0 0.0 0.00 0.00 0.00 79 1009.3
20260506141904 63 48 0.0 0.0 0.00 0.00 0.00 78 1009.0
20260506141401 63 48 1.7 1.7 0.00 0.00 0.00 77 1009.3
20260506140900 63 48 0.0 0.0 0.00 0.00 0.00 77 1009.0
20260506140356 63 48 0.0 0.0 0.00 0.00 0.00 77 1009.0
20260506135853 63 42 0.0 0.0 0.00 0.00 0.00 76 1008.6
20260506135350 64 48 2.6 2.6 0.00 0.00 0.00 76 1008.6
20260506134846 64 48 2.6 2.6 0.00 0.00 0.00 76 1008.6
20260506134343 64 54 0.9 0.9 0.00 0.00 0.00 76 1008.6
20260506133840 64 54 1.7 1.7 0.00 0.00 0.00 76 1008.6
20260506133336 64 54 0.0 0.0 0.00 0.00 0.00 75 1008.3
20260506132833 64 54 2.6 2.6 0.00 0.00 0.00 75 1008.3
20260506132330 63 54 0.0 0.0 0.00 0.00 0.00 75 1008.6
20260506131828 63 54 0.0 0.0 0.00 0.00 0.00 76 1008.3
20260506131324 63 54 5.2 5.2 0.00 0.00 0.00 77 1008.6
20260506130822 62 54 0.0 0.0 0.00 0.00 0.00 76 1008.6
20260506130318 62 54 1.7 1.7 0.00 0.00 0.00 77 1008.6
20260506125816 62 54 0.0 0.0 0.00 0.00 0.00 78 1008.6
20260506125314 62 54 1.7 1.7 0.00 0.00 0.00 78 1009.0
20260506124813 62 54 0.0 0.0 0.00 0.00 0.00 79 1009.0
20260506124309 62 54 0.0 0.0 0.00 0.00 0.00 78 1009.3
20260506123807 61 54 2.6 2.6 0.00 0.00 0.00 77 1009.3
20260506123305 61 48 2.6 2.6 0.00 0.00 0.00 77 1009.0
20260506122801 61 48 2.6 2.6 0.00 0.00 0.00 77 1009.3
20260506122259 61 60 2.6 2.6 0.00 0.00 0.00 77 1009.3
20260506121757 61 60 0.9 0.9 0.00 0.00 0.00 78 1009.3
20260506121253 61 60 5.2 5.2 0.00 0.00 0.00 77 1009.3
20260506120751 61 54 2.6 2.6 0.00 0.00 0.00 77 1009.0
20260506120249 61 36 2.6 2.6 0.00 0.00 0.00 77 1009.0
20260506115746 61 36 7.8 7.8 0.00 0.00 0.00 78 1009.0
20260506115244 61 54 0.0 0.0 0.00 0.00 0.00 78 1009.0
20260506114741 61 54 1.7 1.7 0.00 0.00 0.00 78 1009.0
20260506114239 61 54 0.9 0.9 0.00 0.00 0.00 78 1008.6
20260506113737 61 48 2.6 2.6 0.00 0.00 0.00 78 1008.6
20260506113234 61 48 1.7 1.7 0.00 0.00 0.00 76 1008.3
20260506112730 61 48 1.7 1.7 0.00 0.00 0.00 75 1008.6
20260506112228 61 42 4.3 5.2 0.00 0.00 0.00 75 1008.6
20260506111725 61 36 0.0 0.0 0.00 0.00 0.00 75 1009.0
20260506111224 60 30 0.0 0.0 0.00 0.00 0.00 76 1009.0
20260506110721 60 48 1.7 1.7 0.00 0.00 0.00 76 1009.0
20260506110218 60 48 2.6 2.6 0.00 0.00 0.00 77 1009.0
20260506105714 60 48 1.7 1.7 0.00 0.00 0.00 77 1009.0
20260506105211 60 48 1.7 1.7 0.00 0.00 0.00 76 1008.6
20260506104709 60 114 2.6 2.6 0.00 0.00 0.00 77 1008.3
20260506104207 59 120 0.9 0.9 0.00 0.00 0.00 80 1009.0
20260506103703 59 120 1.7 1.7 0.00 0.00 0.00 79 1008.6
20260506103200 58 120 0.0 0.0 0.00 0.00 0.00 81 1008.6
20260506102659 57 120 1.7 1.7 0.00 0.00 0.00 81 1008.6
20260506102156 56 120 1.7 1.7 0.00 0.00 0.00 83 1008.3
20260506101652 54 120 3.5 3.5 0.00 0.00 0.00 89 1008.6
20260506101149 53 120 0.0 0.0 0.00 0.00 0.00 92 1008.3
20260506100648 52 126 0.0 0.0 0.00 0.00 0.00 94 1008.6
20260506100145 51 126 0.0 0.0 0.00 0.00 0.00 94 1008.3
20260506095644 51 126 0.0 0.0 0.00 0.00 0.00 94 1008.6
20260506095140 52 126 0.0 0.0 0.00 0.00 0.00 94 1008.3
20260506094638 52 126 0.0 0.0 0.00 0.00 0.00 94 1008.6
20260506094135 51 126 0.0 0.0 0.00 0.00 0.00 94 1008.6
20260506093634 51 126 0.0 0.0 0.00 0.00 0.00 94 1008.3
20260506093130 51 126 0.0 0.0 0.00 0.00 0.00 94 1008.3
20260506092628 51 126 0.0 0.0 0.00 0.00 0.00 94 1008.6
20260506092125 51 126 0.0 0.0 0.00 0.00 0.00 94 1008.6
20260506091623 51 126 0.0 0.0 0.00 0.00 0.00 94 1008.6
20260506091120 51 126 0.0 0.0 0.00 0.00 0.00 94 1009.0
20260506090618 51 126 0.0 0.0 0.00 0.00 0.00 94 1009.0
20260506090114 51 126 0.0 0.0 0.00 0.00 0.00 94 1009.0
20260506085611 51 126 0.0 0.0 0.00 0.00 0.00 94 1009.0
20260506085108 51 126 0.0 0.0 0.00 0.00 0.00 94 1009.3
20260506084604 52 126 0.0 0.0 0.00 0.00 0.00 94 1009.0
20260506084101 52 126 0.0 0.0 0.00 0.00 0.00 94 1009.0
20260506083558 52 126 0.0 0.0 0.00 0.00 0.00 94 1009.0
20260506083055 52 126 0.0 0.0 0.00 0.00 0.00 94 1009.0
20260506082552 52 126 0.0 0.0 0.00 0.00 0.00 94 1009.0
20260506082048 53 126 0.0 0.0 0.00 0.00 0.00 94 1009.0
20260506081546 53 126 0.0 0.0 0.00 0.00 0.00 94 1009.3
20260506081043 53 126 0.0 0.0 0.00 0.00 0.00 94 1009.3
20260506080541 53 126 0.0 0.0 0.00 0.00 0.00 94 1009.3
20260506073524 54 126 0.0 0.0 0.00 0.00 0.00 93 1009.8
20260506073021 54 126 0.0 0.0 0.00 0.00 0.00 93 1009.8
20260506072518 54 126 0.0 0.0 0.00 0.00 0.00 93 1010.1
20260506072016 54 126 0.0 0.0 0.00 0.00 0.00 93 1010.1
20260506071514 54 126 0.0 0.0 0.00 0.00 0.00 93 1009.8
20260506071011 54 126 0.0 0.0 0.00 0.00 0.00 93 1009.8
20260506070508 55 126 0.0 0.0 0.00 0.00 0.00 93 1009.8
20260506062445 56 126 0.0 0.0 0.00 0.00 0.00 92 1009.8
20260506061941 56 126 0.0 0.0 0.00 0.00 0.00 92 1009.8
20260506061438 56 126 0.0 0.0 0.00 0.00 0.00 92 1010.1
20260506060936 56 126 0.0 0.0 0.00 0.00 0.00 92 1009.8
20260506060434 56 126 0.0 0.0 0.00 0.00 0.00 91 1010.1
20260506051406 58 126 0.0 0.0 0.00 0.00 0.00 90 1010.4
20260506050903 58 126 1.7 1.7 0.00 0.00 0.00 90 1010.8
20260506050400 58 126 0.0 0.0 0.00 0.00 0.00 89 1010.8
20260506044851 58 126 0.0 0.0 0.00 0.00 0.00 89 1010.8
20260506044349 58 126 0.0 0.0 0.00 0.00 0.00 88 1010.4
20260506043845 58 126 0.0 0.0 0.00 0.00 0.00 89 1010.8
20260506043342 58 126 0.0 0.0 0.00 0.00 0.00 92 1010.4
20260506042841 58 126 0.0 0.0 0.00 0.00 0.00 92 1010.4
20260506042340 58 126 0.0 0.0 0.00 0.00 0.00 92 1010.1
20260506041838 58 126 0.0 0.0 0.00 0.00 0.00 92 1010.1
20260506041335 58 126 0.0 0.0 0.00 0.00 0.00 92 1010.1
20260506040832 58 126 0.0 0.0 0.00 0.00 0.00 92 1010.1
20260506040329 58 126 0.0 0.0 0.00 0.00 0.00 92 1010.1
20260506035825 58 126 0.0 0.0 0.00 0.04 0.04 92 1010.1
20260506035323 58 126 0.0 0.0 0.00 0.04 0.04 92 1010.1
20260506034820 58 126 0.0 0.0 0.00 0.04 0.04 92 1010.1
20260506034317 58 126 0.0 0.0 0.00 0.04 0.04 93 1010.1
20260506033814 58 126 0.0 0.0 0.00 0.04 0.04 93 1010.1
20260506033311 58 126 0.0 0.0 0.00 0.04 0.04 93 1010.8
20260506032808 58 126 0.0 0.0 0.00 0.04 0.04 93 1010.4
20260506032306 58 126 0.0 0.0 0.00 0.04 0.04 93 1010.1
20260506031801 58 126 0.0 0.0 0.00 0.04 0.04 93 1010.1
20260506031258 58 126 0.0 0.0 0.00 0.04 0.04 93 1010.1
20260506030756 58 126 0.0 0.0 0.00 0.04 0.04 93 1010.1
20260506030254 58 126 0.0 0.0 0.00 0.04 0.04 93 1010.1
20260506025751 58 126 0.0 0.0 0.01 0.04 0.04 93 1009.8
20260506025247 58 126 0.0 0.0 0.01 0.04 0.04 93 1010.1
20260506024744 59 126 0.0 0.0 0.01 0.04 0.04 93 1010.1
20260506024241 59 126 0.0 0.0 0.01 0.04 0.04 92 1010.1
20260506023737 59 126 0.0 0.0 0.01 0.04 0.04 92 1010.1
20260506023234 59 126 0.0 0.0 0.01 0.04 0.04 92 1010.1
20260506022731 59 126 0.0 0.0 0.01 0.04 0.04 92 1010.1
20260506022229 59 126 0.0 0.0 0.01 0.04 0.04 92 1010.1
20260506021726 59 126 0.0 0.0 0.01 0.04 0.04 91 1010.1
20260506021223 59 126 0.0 0.0 0.01 0.04 0.04 91 1010.1
20260506020720 59 126 0.0 0.0 0.01 0.04 0.04 91 1010.1
20260506020218 59 126 0.0 0.0 0.00 0.03 0.03 91 1010.1
20260506015715 59 126 0.0 0.0 0.00 0.03 0.03 91 1010.1
20260506015213 59 126 0.0 0.0 0.00 0.03 0.03 91 1010.1
20260506014710 59 126 0.0 0.0 0.00 0.03 0.03 90 1010.1
20260506014205 60 126 0.0 0.0 0.00 0.03 0.03 90 1010.1
20260506013703 60 126 0.0 0.0 0.00 0.03 0.03 89 1010.1
20260506013200 60 126 0.0 0.0 0.00 0.03 0.03 89 1009.8
20260506012656 60 126 0.0 0.0 0.00 0.03 0.03 89 1010.1
20260506012153 60 126 0.0 0.0 0.00 0.03 0.03 89 1010.1
20260506011651 60 126 0.0 0.0 0.00 0.03 0.03 89 1010.1
20260506011147 60 126 0.0 0.0 0.00 0.03 0.03 89 1009.8
20260506010646 60 126 0.0 0.0 0.00 0.03 0.03 90 1009.8
20260506010142 60 126 2.6 2.6 0.00 0.03 0.03 89 1009.3
20260506005639 60 126 0.0 0.0 0.00 0.03 0.03 88 1009.3
20260506005136 61 126 0.0 0.0 0.00 0.03 0.03 88 1009.0
20260506004632 60 126 0.0 0.0 0.00 0.03 0.03 86 1009.0
20260506004130 60 126 0.0 0.0 0.00 0.03 0.03 87 1009.3
20260506003626 60 126 0.0 0.0 0.00 0.03 0.03 87 1009.0
20260506003122 61 126 0.0 0.0 0.00 0.03 0.03 87 1009.0
20260506002618 60 126 0.0 0.0 0.00 0.03 0.03 87 1009.0
20260506002114 60 126 0.0 0.0 0.00 0.03 0.03 87 1009.0